GFSSE_2pvu_pres_060.txt.gz
Presure
110 122 105 100 107 104 118 125 128 131 137 119 125 116 87 116 102 119 114 99 110 116 100 106 90 117 106 103 114 113 111 126 134 107 119 106 130 110 104 116 111 115 107
140 160 107 125 121 123 100 125 126 109 125 137 121 124 123 121 106 109 113 108 123 119 97 114 118 94 107 114 124 132 98 129 109 111 113 136 114 111 121 116 113 100 115
81 146 137 139 133 133 130 130 103 138 120 95 121 113 97 125 127 124 124 124 120 112 118 117 90 103 102 149 144 103 126 119 135 124 143 130 113 111 107 130 114 109 115
92 112 119 89 100 118 125 122 136 105 125 78 129 129 130 113 126 130 129 116 114 127 125 111 142 140 132 120 139 98 135 120 107 125 123 131 124 110 115 116 130 120 113
98 102 120 114 110 120 123 104 124 131 125 137 102 124 115 118 121 114 118 136 123 143 114 140 140 136 111 147 114 137 122 124 119 133 113 104 117 122 134 121 115 130 114
130 122 139 161 119 124 106 114 124 123 134 117 137 121 124 133 122 133 142 110 120 137 142 134 118 95 129 129 126 117 108 132 97 138 107 112 133 129 118 117 113 121 102
189 202 104 229 181 129 129 128 128 130 132 129 121 141 135 138 128 109 119 117 119 141 130 107 120 140 135 137 111 148 123 130 108 108 125 114 127 116 121 128 121 107 87
107 200 196 185 189 106 132 126 132 128 141 141 136 138 141 144 131 134 121 120 106 129 121 125 134 131 137 128 116 121 131 133 138 114 120 121 118 112 111 129 111 112 121
197 160 162 135 176 137 187 124 123 124 139 128 129 137 134 146 148 141 129 133 141 137 143 148 126 145 118 136 117 122 133 141 124 119 129 126 119 119 107 122 120 111 107
193 149 103 183 182 183 183 132 142 136 137 133 143 133 142 149 146 153 153 144 143 133 143 158 132 130 127 137 118 134 129 127 125 120 122 120 119 122 120 120 120 101 125
234 209 172 172 151 184 206 136 109 199 144 143 142 133 145 142 139 146 136 141 141 140 140 140 146 147 148 127 121 141 124 148 155 124 126 115 117 118 126 123 142 118 117
253 202 180 190 175 186 163 159 199 135 126 126 137 121 122 136 128 128 122 113 115 130 138 113 150 146 135 147 147 164 124 153 126 124 117 119 105 112 125 110 112 118 128
226 194 205 104 176 180 187 158 138 143 128 133 124 119 139 128 132 134 132 143 134 157 157 138 162 137 132 128 127 154 116 151 131 128 128 138 132 109 118 121 131 127 153
216 199 195 188 180 182 193 156 173 182 188 149 105 145 131 139 125 120 118 120 128 118 136 122 144 144 115 111 121 121 151 107 113 105 127 144 114 124 119 126 114 163 199
238 209 201 186 203 184 182 193 179 166 182 153 120 117 129 123 130 114 183 127 131 143 130 154 137 128 118 117 148 134 132 107 115 116 127 114 120 118 125 132 154 166 210
235 208 197 191 193 193 191 187 180 187 188 179 167 189 139 147 138 120 114 121 137 125 141 136 128 129 125 179 114 115 130 114 109 111 112 119 137 120 120 187 186 205 210
282 233 194 192 191 184 185 186 191 118 203 126 149 122 132 124 133 145 142 142 126 136 130 175 133 128 141 137 133 160 163 122 111 113 123 130 129 120 195 203 208 214 216
126 216 231 221 203 199 198 203 191 196 186 203 140 200 184 139 200 125 186 125 138 138 160 143 139 200 140 179 119 193 127 118 128 126 158 124 202 206 197 213 202 225 236
231 247 233 215 212 197 208 186 187 121 135 194 194 198 171 172 164 204 125 131 197 196 135 133 174 168 127 179 177 145 140 171 165 183 212 202 205 202 209 195 217 220 210
237 230 235 248 256 240 218 211 202 204 196 200 145 152 147 195 196 199 179 197 200 123 194 199 207 202 192 116 129 139 188 201 205 200 208 201 203 207 209 232 216 211 214
169 120 217 127 224 237 214 202 210 206 205 209 213 197 203 205 198 123 112 143 206 193 173 202 138 118 132 138 127 197 202 193 220 203 201 207 214 226 224 212 217 213 204
215 221 231 244 158 231 223 204 234 228 223 216 211 215 143 201 178 134 199 127 150 141 174 135 134 133 138 155 137 208 211 216 199 198 207 212 221 213 218 215 202 206 209
184 223 234 233 243 251 237 223 213 214 219 209 194 210 154 125 201 202 133 127 124 162 123 155 128 207 170 205 203 218 202 201 219 215 228 214 205 214 210 205 204 207 210
213 214 135 171 222 229 232 241 228 227 225 217 144 132 209 136 120 118 127 141 218 194 133 135 131 200 201 202 198 204 214 238 238 230 208 220 228 221 204 202 199 210 219
215 217 220 165 216 215 217 213 214 157 207 131 127 130 208 206 122 123 132 198 128 201 195 203 199 200 202 224 206 213 245 212 197 214 227 212 204 204 204 213 217 217 204
214 222 213 212 178 210 215 209 209 210 188 209 214 213 215 186 217 186 127 179 205 156 212 212 229 224 214 230 230 229 209 209 214 208 221 204 210 206 214 216 204 215 215

GFSSE_2pvu_pres_066.txt.gz
Presure
107 120 130 89 123 115 138 126 130 129 133 121 128 131 128 117 123 131 128 120 123 112 111 126 91 125 125 125 108 104 93 99 98 105 107 100 97 102 123 134 139 136 121
65 76 66 207 129 126 125 175 136 124 109 133 127 106 137 134 123 123 116 118 117 114 123 125 115 100 124 101 100 108 123 100 102 93 123 100 121 103 136 130 135 123 124
261 264 263 95 97 87 81 128 166 138 135 132 107 102 124 115 136 124 126 129 132 132 104 130 87 122 117 97 107 104 131 97 90 130 115 123 125 125 116 138 126 115 125
86 292 275 176 228 102 114 173 130 80 132 133 145 96 127 111 135 143 109 119 122 135 144 118 87 110 112 94 111 128 134 128 132 104 100 127 135 133 136 127 111 139 103
322 193 221 297 130 211 99 127 101 144 127 134 127 162 129 119 121 111 125 129 139 101 151 109 118 125 129 136 132 129 123 127 121 120 132 138 112 116 117 117 118 118 128
240 114 216 125 218 204 111 93 125 159 159 208 117 130 125 132 221 143 133 118 122 139 120 142 92 123 129 158 119 140 139 137 131 126 143 128 113 121 130 112 140 114 110
244 237 213 207 147 174 158 150 116 168 121 160 101 124 117 156 113 154 135 119 112 129 125 146 133 134 123 129 117 121 116 145 118 113 111 120 132 125 126 130 134 116 130
248 241 216 209 191 184 199 174 114 122 125 119 126 117 209 128 160 175 197 231 143 138 141 134 145 126 132 148 149 128 111 126 109 121 127 116 118 122 131 123 125 125 136
238 218 195 192 136 164 180 104 142 124 125 163 150 94 128 124 114 92 160 225 142 141 140 144 149 96 150 149 141 151 142 116 142 130 105 131 133 132 125 115 140 143 119
213 189 181 177 192 160 141 170 186 122 180 143 195 191 188 148 138 134 112 144 132 145 150 146 140 127 122 131 165 123 119 127 127 132 127 132 129 147 146 156 152 134 139
210 189 206 172 112 168 121 145 120 176 143 193 110 123 170 151 160 170 114 122 127 104 152 127 140 135 123 135 123 121 124 130 144 136 122 132 141 126 147 148 137 138 123
192 193 195 182 204 180 179 132 149 160 176 151 134 195 108 182 158 185 138 145 160 133 141 133 124 120 126 135 126 136 148 151 138 110 141 134 129 140 132 129 140 174 142
212 186 207 191 204 192 164 186 168 163 176 154 183 212 183 157 146 125 135 135 116 211 110 117 149 118 122 127 126 130 128 135 135 143 128 120 135 143 114 110 131 128 119
205 213 193 182 194 181 181 169 170 175 173 147 195 197 167 185 188 192 128 188 174 192 147 126 111 221 189 120 134 125 111 215 129 138 134 125 156 134 210 150 127 141 142
209 201 209 187 175 183 186 167 171 184 205 165 166 174 175 167 182 189 181 197 205 124 157 213 178 126 124 149 121 128 118 120 141 141 122 136 130 134 132 136 144 153 130
209 187 185 187 182 194 181 168 170 178 170 184 180 176 186 190 191 190 198 195 189 181 168 135 127 110 160 180 149 120 137 143 133 135 154 150 145 134 141 121 143 123 197
185 192 221 169 180 177 177 175 162 164 179 189 188 182 169 178 170 182 196 187 141 189 120 129 198 149 165 168 192 191 192 126 205 145 198 136 128 178 118 205 205 215 209
229 184 204 233 185 190 170 198 185 183 177 173 173 186 186 183 184 188 192 187 172 185 178 186 183 186 178 177 188 135 146 192 192 158 195 184 122 152 194 132 132 204 156
248 197 192 173 192 201 178 156 152 178 150 188 183 184 189 193 185 183 185 180 181 181 191 140 201 185 190 194 159 194 195 163 197 194 182 177 165 125 168 223 165 128 134
257 256 251 205 195 207 227 190 189 190 188 187 184 184 194 183 180 181 188 192 173 164 123 183 148 181 187 192 211 197 203 197 112 195 190 147 197 186 124 129 200 138 181
227 227 226 242 169 192 224 247 195 208 201 203 195 194 193 186 195 195 178 183 181 182 184 184 183 184 191 199 192 111 188 195 200 204 202 217 124 129 135 205 203 194 198
228 215 218 124 200 214 238 224 204 192 190 175 192 196 192 182 181 175 174 181 179 186 190 179 191 191 191 190 199 191 157 202 127 158 147 153 135 205 202 195 197 212 211
253 224 220 202 216 123 203 204 212 202 210 211 188 192 201 175 182 177 176 173 173 180 184 184 182 156 140 186 169 178 147 129 178 216 207 203 199 195 203 208 217 227 221
243 193 254 241 212 219 211 237 200 180 205 188 184 191 167 184 187 181 174 181 185 187 192 133 119 128 136 190 228 217 217 209 202 199 198 202 194 207 232 228 213 206 208
246 237 235 232 196 251 242 235 233 200 201 189 176 176 184 181 180 189 181 185 191 119 148 186 214 227 224 216 208 209 206 205 211 226 198 224 241 214 213 217 213 217 211
220 238 229 232 227 225 226 227 222 229 237 194 193 189 163 193 209 206 208 215 228 226 221 218 216 223 218 211 206 209 205 202 208 214 208 228 204 203 205 206 205 215 225

GFSSE_2pvu_pres_072.txt.gz
Presure
145 118 143 127 128 139 120 109 103 130 109 110 114 112 93 141 93 140 127 137 128 122 122 148 142 142 97 109 109 117 128 102 90 109 96 95 98 112 100 112 97 102 99
79 144 250 272 163 100 134 121 78 125 129 107 99 122 121 115 124 122 119 142 117 126 127 111 122 128 140 129 108 94 115 110 103 121 104 100 103 96 90 108 96 101 102
252 279 277 267 75 274 227 219 108 170 87 95 130 119 80 125 106 139 102 140 146 117 112 125 118 131 124 119 126 133 125 132 118 111 101 113 109 117 95 96 90 104 92
264 145 223 215 132 271 71 214 162 223 96 207 157 207 131 106 132 140 126 135 125 132 111 135 125 124 141 127 147 124 122 128 135 129 138 112 129 121 96 110 108 112 130
270 268 267 203 243 147 250 122 256 234 251 228 138 91 124 117 208 91 137 118 137 135 138 131 137 120 124 133 136 121 124 121 126 137 119 97 124 141 126 99 101 135 132
358 405 383 215 226 214 237 200 80 113 239 225 240 131 207 102 229 116 118 119 143 137 147 132 115 112 109 130 115 115 139 124 111 115 128 122 130 113 112 112 115 104 141
367 255 147 260 231 257 269 229 259 208 183 205 222 217 213 168 143 204 102 190 148 149 130 153 146 136 138 133 110 105 127 136 129 113 138 104 99 100 135 100 137 130 122
355 370 97 239 163 214 236 227 227 79 159 210 211 195 204 158 109 204 158 154 95 209 193 143 105 126 116 122 112 125 115 119 125 105 96 135 114 123 123 123 142 122 109
256 290 238 222 234 204 209 234 237 214 198 213 170 212 133 152 179 98 175 120 112 115 199 130 137 137 160 167 149 131 122 143 141 150 143 111 120 137 125 138 149 125 122
228 251 250 231 226 210 224 203 220 215 190 210 128 199 205 128 174 90 185 147 136 203 176 166 116 199 204 211 120 103 161 139 213 144 191 131 135 122 122 124 138 113 134
247 256 254 237 203 210 205 204 198 193 202 166 188 197 194 157 189 205 197 150 100 99 121 136 98 198 122 119 172 161 181 153 118 118 121 146 143 147 124 136 123 123 127
249 234 226 227 220 215 206 206 185 197 194 189 183 124 174 179 183 134 191 185 175 123 115 121 108 123 117 123 137 160 158 143 114 151 175 174 211 163 162 190 152 124 127
226 217 212 219 223 218 202 194 200 180 190 175 176 190 189 171 175 117 129 175 187 184 200 220 144 171 199 202 196 184 103 123 190 136 180 191 166 150 179 138 127 156 136
212 228 218 223 210 215 193 198 184 183 108 174 195 187 187 174 189 193 196 177 193 188 97 155 190 212 200 176 168 156 144 150 151 155 145 161 138 128 127 126 198 192 136
212 202 216 216 206 201 193 190 204 191 177 182 186 185 172 164 189 182 204 192 181 190 186 186 95 136 167 194 183 207 181 196 213 181 181 175 125 126 124 171 189 124 140
204 181 188 185 213 192 192 197 176 193 185 173 187 184 182 170 202 195 144 182 193 188 193 190 180 172 180 183 179 136 196 177 151 172 171 122 124 197 199 171 192 120 186
185 182 182 203 221 187 205 198 193 185 208 175 167 183 198 182 192 185 184 167 166 195 127 179 183 187 169 195 183 181 185 192 132 205 179 213 197 116 122 192 194 199 192
181 187 172 195 196 200 204 185 184 188 193 173 180 172 183 152 190 193 167 173 178 185 191 198 195 202 198 173 190 201 184 172 182 186 202 134 180 179 188 189 197 193 187
195 184 192 177 181 207 181 204 180 179 178 167 169 193 178 170 183 183 191 178 161 193 184 171 188 177 188 185 200 180 165 152 172 175 204 195 204 203 202 127 186 135 208
228 184 202 184 168 191 189 178 169 182 179 187 123 193 200 181 195 206 159 164 186 200 197 180 176 172 205 195 193 191 185 172 188 157 196 153 192 127 183 186 188 208 129
226 250 185 184 189 196 177 187 174 179 192 157 156 179 204 165 153 182 172 189 195 168 188 177 174 192 175 201 200 182 181 193 190 205 179 201 181 181 184 184 203 173 128
225 274 214 200 199 196 180 178 173 183 203 171 178 181 192 179 195 178 167 179 174 178 177 180 194 173 186 191 182 192 186 193 167 200 181 200 177 181 175 171 127 140 196
227 262 260 257 208 195 189 182 178 184 174 167 190 180 177 153 121 181 169 188 180 175 177 171 169 189 186 188 189 190 202 185 188 194 182 190 183 181 172 208 204 203 212
219 269 254 245 246 232 187 188 201 187 165 131 135 126 161 160 188 190 192 159 167 187 168 182 182 185 177 187 187 162 173 190 185 171 200 172 182 216 215 205 218 209 200
237 241 256 252 241 238 248 201 180 182 191 190 175 132 124 187 126 195 187 188 171 182 182 171 174 195 185 190 184 177 184 164 188 214 175 182 223 225 227 220 185 198 197
231 229 238 244 247 240 236 223 190 233 228 204 197 152 127 161 181 178 186 181 177 171 180 178 137 209 200 224 214 201 200 192 178 182 215 231 225 202 194 183 186 211 181

GFSSE_2pvu_pres_075.txt.gz
Presure
120 129 131 99 105 142 120 111 118 123 119 128 124 121 85 124 110 126 126 103 121 110 126 128 125 130 112 127 146 126 113 126 112 110 104 117 115 102 101 97 87 101 93
151 233 90 94 135 111 136 96 108 109 117 137 129 137 124 94 132 126 120 130 121 127 137 130 129 102 118 129 146 132 122 108 99 100 129 91 96 85 106 107 106 100 103
189 105 122 264 257 195 135 74 143 276 137 131 90 102 104 99 130 83 102 100 99 93 102 105 130 99 148 106 114 132 121 116 120 84 92 104 112 120 119 91 101 96 109
255 235 281 215 198 222 159 74 268 132 171 221 154 114 170 114 132 124 133 110 123 120 127 126 133 131 132 145 132 141 133 130 138 123 141 125 121 112 132 129 113 114 125
311 257 99 254 254 330 209 131 189 83 259 252 237 218 204 198 196 90 79 142 128 191 130 135 133 131 132 125 127 104 131 132 129 127 111 115 138 118 123 115 115 122 119
361 161 248 243 169 221 215 221 241 249 224 241 180 215 129 170 231 217 219 106 88 132 143 142 132 133 138 129 130 126 118 110 113 132 110 122 123 119 128 114 125 112 125
387 266 336 245 384 241 245 249 216 211 226 295 204 244 216 210 192 222 161 159 129 145 147 124 142 118 125 133 142 122 130 141 142 132 122 117 140 120 114 134 113 135 117
353 264 238 263 279 276 231 227 190 205 202 216 172 230 89 161 150 158 231 196 208 209 96 213 156 171 144 141 137 142 197 136 135 117 128 120 131 121 125 109 123 125 138
254 272 251 231 161 254 227 212 293 203 236 195 205 75 228 219 205 215 190 108 97 98 92 147 188 118 209 172 220 98 138 111 124 126 101 123 111 124 108 130 140 132 137
252 264 246 239 251 248 235 222 245 253 221 205 194 210 207 214 215 202 200 195 176 113 198 90 110 103 100 114 102 201 200 175 143 140 137 140 190 116 145 139 128 98 122
258 245 249 229 228 225 223 216 225 239 226 199 200 207 194 203 202 207 206 192 190 198 171 191 182 102 93 111 172 201 101 131 118 159 201 188 182 157 191 161 158 113 131
244 250 240 250 218 219 219 222 224 207 229 222 213 195 198 199 201 205 198 200 194 205 190 193 213 182 181 148 178 108 103 102 191 98 106 126 114 122 116 132 157 123 131
240 237 245 229 217 218 216 225 206 205 211 207 214 195 197 190 182 191 201 195 205 189 196 199 214 203 202 133 101 227 183 134 114 130 109 99 110 208 119 127 105 130 139
228 235 229 247 240 217 228 204 194 216 194 199 194 203 190 194 175 190 173 192 195 108 206 187 204 165 182 188 118 199 137 135 128 116 131 136 216 124 104 105 123 147 123
217 215 189 239 230 228 222 213 212 192 206 220 194 191 194 178 186 198 190 199 193 188 201 199 214 156 212 194 181 171 156 174 182 191 180 188 197 201 154 128 186 187 181
206 251 228 199 227 213 202 206 202 202 196 197 190 193 190 195 180 176 185 187 161 195 196 155 173 176 194 194 186 188 143 155 143 198 179 191 185 175 183 167 163 180 213
192 221 202 207 189 177 212 202 199 200 205 200 197 196 182 211 194 206 178 206 208 191 199 203 197 179 185 197 192 207 173 174 124 121 183 201 201 201 128 174 203 219 118
205 182 212 205 190 207 180 196 191 193 193 189 189 188 186 204 117 178 179 182 189 177 196 191 197 200 189 188 166 165 191 176 160 184 186 192 190 191 188 199 174 200 189
225 205 215 204 192 176 169 201 193 178 175 195 173 175 191 177 180 183 175 176 195 175 167 142 184 189 182 184 121 195 205 183 170 187 183 188 194 174 141 187 195 204 182
246 228 204 198 213 184 181 181 189 176 176 190 194 171 171 195 199 191 174 163 175 194 185 182 178 191 162 175 177 175 174 174 151 169 162 176 188 177 150 174 212 182 192
245 240 238 202 193 201 202 203 187 192 176 205 193 186 168 149 207 180 177 163 184 188 185 171 165 213 202 164 181 165 176 194 180 182 189 188 196 189 204 176 211 174 195
263 257 233 213 196 194 201 187 199 192 184 171 171 190 175 157 178 154 198 182 159 160 172 194 186 166 166 206 169 169 185 192 184 186 183 190 188 161 155 206 195 189 178
254 241 240 233 235 196 187 201 185 194 184 188 181 172 133 136 171 154 165 161 160 172 175 201 170 176 171 176 181 172 182 177 171 186 173 169 186 198 212 167 190 180 201
250 255 229 239 244 237 195 188 205 182 182 191 190 176 181 191 179 178 177 135 153 161 186 191 177 182 172 186 191 187 175 178 182 186 174 210 222 202 179 239 210 190 199
250 245 248 255 232 246 254 221 246 190 201 196 184 180 157 155 123 164 118 125 124 166 191 166 181 175 170 189 185 175 153 133 172 129 176 210 187 194 190 214 199 205 197
243 234 240 239 241 233 251 241 238 216 202 189 177 183 185 176 176 176 142 143 168 186 183 181 178 171 174 182 174 148 142 171 194 192 196 216 206 216 223 191 196 206 195

GFSSE_2pvu_pres_078.txt.gz
Presure
106 124 131 125 123 122 67 130 121 108 133 111 127 102 132 126 126 128 119 104 115 118 132 115 125 129 108 137 104 100 123 120 119 106 121 108 122 111 115 114 97 99 96
130 104 142 94 136 133 104 85 196 97 82 112 117 100 115 127 88 117 116 138 121 124 112 128 104 86 135 134 139 111 140 134 143 151 138 135 139 132 120 105 111 109 113
121 126 145 254 147 124 75 224 108 101 281 267 133 135 134 105 121 132 145 121 100 127 126 108 124 133 101 110 137 131 135 135 125 131 130 112 110 92 92 93 109 115 104
243 214 160 238 250 263 75 127 134 210 214 189 223 197 145 113 113 121 133 98 99 120 123 120 137 112 122 118 101 131 131 121 137 140 115 131 134 119 127 112 102 123 100
259 258 146 160 226 229 214 268 245 249 182 256 76 143 94 226 143 238 136 99 110 81 97 92 131 129 127 122 125 131 104 99 144 102 118 119 123 116 139 122 125 119 114
248 283 401 383 339 387 283 248 211 217 280 243 145 252 242 184 126 105 143 232 231 135 120 143 101 108 119 127 133 132 131 134 132 126 131 86 139 128 145 98 127 112 120
268 319 418 265 254 250 264 241 213 162 222 232 226 241 248 151 151 232 229 227 224 145 180 209 125 244 163 134 131 126 130 119 124 133 123 136 103 109 122 130 120 114 119
270 308 269 250 259 244 221 254 217 204 209 197 210 214 235 205 155 239 227 231 235 215 166 203 188 198 142 165 113 187 132 141 133 125 115 125 132 123 118 129 120 118 134
254 241 253 241 250 241 226 241 219 177 199 196 189 196 221 219 235 230 164 173 95 201 184 219 217 212 116 215 190 190 207 190 146 156 229 129 96 133 159 154 131 99 112
234 228 249 240 250 252 237 265 249 242 205 210 205 205 201 209 229 237 224 234 207 195 156 141 216 130 148 135 184 137 104 104 199 177 161 135 109 80 125 123 111 150 149
226 233 219 239 238 241 228 232 252 224 271 203 209 198 212 190 228 249 221 207 219 211 142 189 89 179 166 174 183 190 191 93 145 168 173 107 163 168 198 188 188 178 180
227 219 239 224 236 230 236 226 247 235 217 217 204 202 212 213 213 218 209 202 215 203 196 189 199 194 190 179 180 141 150 190 133 140 104 138 180 99 174 174 179 114 112
232 228 224 217 236 232 249 238 233 237 212 217 207 218 211 203 209 203 194 197 193 194 196 191 192 196 147 191 183 189 211 215 203 98 98 108 120 109 96 103 120 159 144
238 216 243 231 227 219 224 235 223 222 254 204 218 200 185 207 197 191 102 188 193 191 192 190 196 190 181 101 213 183 176 166 194 200 139 203 159 169 207 157 121 117 121
239 219 219 217 217 243 237 206 208 216 249 234 208 200 199 201 204 191 186 197 192 214 206 200 200 92 187 205 136 176 167 179 161 165 179 216 124 126 188 135 186 163 187
233 199 220 225 217 227 217 210 184 205 200 213 209 193 206 198 193 184 182 185 192 189 125 205 194 208 210 191 214 211 201 223 167 201 202 196 185 186 178 192 183 181 163
218 234 215 186 212 197 212 240 209 199 214 194 202 206 203 181 185 191 183 181 190 190 190 171 180 193 217 185 157 118 199 189 164 172 180 179 156 190 180 194 186 180 173
254 236 223 202 224 199 183 190 206 201 184 190 208 201 202 188 190 180 191 177 177 182 176 196 193 171 166 166 167 117 201 174 174 190 203 174 150 159 182 179 185 172 186
258 241 238 205 196 219 196 225 187 202 195 184 206 194 193 188 185 192 192 204 176 180 191 129 165 172 177 165 159 187 179 167 174 161 173 161 190 158 176 178 184 192 183
278 257 247 231 211 215 202 228 201 178 210 201 177 191 206 196 176 175 175 180 176 163 189 194 189 172 174 167 163 172 186 165 201 200 175 174 199 193 178 193 181 179 174
250 276 259 245 238 205 201 185 202 170 176 198 189 195 186 180 198 182 191 176 161 172 201 180 188 170 163 189 169 187 178 206 178 175 192 173 193 185 181 167 151 178 182
267 265 265 243 245 234 192 216 208 200 196 188 184 182 180 168 181 175 178 197 170 164 176 158 192 190 163 183 176 180 171 176 185 165 173 175 172 169 176 186 174 181 181
279 270 264 250 241 232 224 196 201 218 188 190 174 180 179 189 181 177 192 169 205 190 151 171 152 170 188 167 170 194 179 181 191 178 152 172 136 178 177 173 183 189 195
229 261 260 242 229 243 262 202 197 186 192 184 187 181 187 180 189 180 177 156 152 113 160 176 154 187 171 175 185 166 179 183 171 169 171 172 185 181 178 184 189 207 229
215 266 248 247 264 221 241 237 203 191 184 186 203 199 171 184 175 170 162 163 183 175 169 167 171 180 190 182 178 189 180 174 171 167 183 182 167 126 174 202 191 199 207
200 208 250 239 238 253 229 238 245 224 193 193 181 186 192 186 172 180 175 179 171 165 172 174 178 177 176 180 179 177 166 163 178 183 182 186 184 175 207 192 217 216 213